Lid_Strength_Index
1 -0 0 -0 -0 -1 -0 -0 -0 -0 -0 1 0 -0 -0 -1 -1 -1 -1 -0 -1 -1 -1 -2 -2 -2 -2 -2 -2 -2 -2 -2 -2 -2 -1 -1 -2 -2 -1 -1 -1 -0 -0
4 0 0 0 -0 -0 -0 -0 0 0 0 1 1 0 -0 -1 -1 -0 -0 -1 -1 -1 -1 -2 -2 -2 -2 -2 -2 -2 -2 -2 -2 -2 -2 -2 -2 -1 -1 -0 -0 0 0
6 4 1 0 0 -0 -0 -0 0 -0 0 1 0 -0 -0 -0 -1 -0 -0 -1 -1 0 -1 -2 -2 -2 -2 -2 -2 -2 -2 -2 -2 -2 -2 -2 -1 -1 -1 -0 -0 1 1
7 7 5 0 -0 -0 -0 0 0 1 1 1 1 0 0 -0 -0 -0 -0 -1 -1 -1 -1 -1 -2 -2 -2 -2 -2 -2 -2 -2 -2 -2 -2 -2 -2 -1 -1 0 0 1 1
8 8 7 4 -0 0 0 0 1 1 1 1 1 1 0 0 -0 -0 -0 -0 -1 -1 -0 0 -0 -0 -1 -2 -2 -2 -2 -2 -2 -2 -2 -2 -2 -1 -1 0 0 1 1
9 9 8 6 2 1 1 1 1 1 1 1 1 1 1 0 -0 -0 -0 -0 -1 -1 0 1 1 1 0 -1 -2 -2 -2 -2 -2 -2 -2 -2 -1 -1 -0 0 0 0 1
9 10 9 7 5 1 1 1 1 2 2 1 2 2 2 1 1 0 -0 -0 -0 -0 0 0 1 0 1 -0 -1 -2 -2 -2 -2 -2 -2 -1 -1 -1 -0 -0 0 1 1
9 9 10 9 7 7 1 1 1 2 2 1 3 3 5 3 1 1 0 1 0 -0 0 1 -0 1 1 1 1 -1 -2 -2 -2 -2 -2 -1 -1 -1 -1 -0 0 1 1
9 9 10 9 8 7 6 1 1 2 3 2 1 3 6 6 4 2 1 1 1 0 -0 0 1 0 1 1 -0 0 -0 -1 -2 -2 -2 -1 -1 -1 -1 -0 0 1 1
10 9 9 9 8 8 7 5 1 1 2 3 2 2 2 2 5 6 2 1 1 1 1 1 1 -0 -0 -0 1 0 1 -0 -2 -2 -2 -2 -1 -1 -1 -1 -0 0 1
11 10 10 10 10 9 8 7 4 1 1 2 2 2 2 3 3 4 6 4 2 1 1 1 1 1 1 0 -1 0 0 -1 -2 -2 -2 -2 -2 -2 -2 -1 -1 -1 -0
11 10 10 10 10 10 9 8 8 5 1 1 2 2 3 4 4 4 4 4 4 2 1 0 1 1 1 1 1 2 1 -1 -1 -2 -2 -2 -2 -2 -2 -2 -1 -1 -1
12 11 11 11 11 11 10 9 8 7 3 2 2 2 2 2 3 3 3 4 4 3 2 1 0 1 1 1 1 2 2 1 -0 -1 -1 -1 -1 -1 -1 -1 -1 -0 -0
12 11 11 10 11 10 12 9 8 7 6 1 1 1 2 1 1 2 3 4 5 4 3 3 1 1 1 1 1 3 2 2 1 -1 -1 -1 -1 -1 -1 -1 -1 -1 -0
12 11 11 11 10 11 10 11 10 8 7 6 1 1 1 1 1 1 1 2 4 6 5 3 3 1 1 2 3 1 1 3 2 1 0 0 0 1 0 -0 -0 -0 -0
12 12 11 11 10 10 11 11 10 8 8 6 2 1 1 1 1 1 1 1 2 3 5 3 3 3 2 2 3 1 2 4 3 2 2 2 2 2 2 1 1 1 1
11 12 12 11 11 11 10 11 11 10 8 7 6 1 2 1 1 1 1 1 2 2 4 3 2 3 2 3 3 3 3 3 3 3 2 3 3 3 3 2 2 2 2
9 11 11 11 11 11 11 11 12 10 9 8 6 3 2 1 2 1 1 2 2 2 3 4 3 3 3 2 2 3 3 3 3 3 3 3 3 3 3 2 3 3 3
9 9 10 11 11 11 11 11 11 12 10 9 7 6 2 2 2 2 2 2 2 2 2 3 4 4 4 3 3 3 3 3 2 4 3 3 3 3 2 3 3 3 3
9 9 9 9 10 11 10 11 11 10 10 8 7 4 3 2 2 2 2 2 2 2 2 3 4 5 5 6 5 5 6 4 4 4 5 4 4 4 3 3 3 4 4
9 10 10 9 9 10 10 10 11 10 10 10 8 6 3 2 3 2 2 2 2 2 3 3 4 4 7 7 6 5 5 6 6 4 5 5 5 5 5 4 5 5 5
10 10 10 10 9 8 9 9 10 11 10 9 9 7 4 4 3 4 4 3 2 2 3 3 3 4 5 5 5 5 5 5 6 5 5 6 5 5 5 5 5 5 5
10 11 11 10 10 9 8 8 8 10 10 9 8 6 5 3 2 1 3 4 4 3 3 2 3 3 4 3 4 5 5 5 5 5 5 6 6 6 4 4 5 5 5
11 11 11 11 10 10 8 7 7 8 10 9 8 6 4 4 1 1 2 2 2 2 2 2 1 1 2 2 3 3 4 4 5 6 4 7 6 7 5 5 5 5 5
11 11 11 11 10 10 8 7 6 8 8 9 7 5 5 3 2 4 2 2 2 2 3 4 3 4 4 4 3 3 4 5 8 7 6 7 7 7 6 6 5 5 6
10 11 11 10 9 10 8 7 6 7 8 9 7 5 4 3 2 3 2 2 3 3 2 3 3 4 4 4 4 2 3 6 10 11 7 10 11 9 11 9 9 8 8